Change the Weather History Date:

Sunday, March 27, 2011

  Actual Average Record
Temperature  
Mean Temperature 46 °F 53 °F  
Max Temperature 50 °F 65 °F 84 °F (1910)
Min Temperature 41 °F 42 °F 14 °F (1955)
Degree Days  
Heating Degree Days 19 12  
Month to date heating degree days 298 415  
Since 1 July heating degree days 3273 3311  
Cooling Degree Days 0 0  
Month to date cooling degree days 7 0  
Year to date cooling degree days 7 0  
Moisture  
Dew Point 40 °F    
Average Humidity 86    
Maximum Humidity 96    
Minimum Humidity 76    
Precipitation  
Precipitation 0.01 in 0.15 in 5.75 in (1994)
Month to date precipitation 5.42 3.76  
Year to date precipitation 12.93 12.34  
Snow  
Snow 0.00 in 0.00 in - ()
Month to date snowfall T 0.8  
Since 1 July snowfall 12.3 5.9  
Snow Depth 0.00 in    
Sea Level Pressure  
Sea Level Pressure 29.87 in    
Wind  
Wind Speed 8 mph (North)    
Max Wind Speed 15 mph    
Max Gust Speed 17 mph    
Visibility 6 miles    
Events Rain    
T = Trace of Precipitation, MM = Missing Value Source: NWS Daily Summary

Daily Weather History Graph

Daily Weather History Graph

Search for Another Location

Airport or City:

Trip Planner

Search our weather history database for the weather conditions in past years. The results will help you decide how hot, cold, wet, or windy it might be!

Date:

Astronomy

Mar. 27, 2011 Rise Set
Actual Time 7:29 AM EDT 7:53 PM EDT
Civil Twilight 7:04 AM EDT 8:18 PM EDT
Nautical Twilight 6:34 AM EDT 8:49 PM EDT
Astronomical Twilight 6:03 AM EDT 9:19 PM EDT
Moon 3:30 AM EDT (3/27) 1:45 PM EDT (3/27)
Length of Visible Light 13h 14m
Length of Day
12h 23m
Last Quarter, 38% of the Moon is Illuminated
Mar 27
Last Quarter
Apr 3
New
Apr 11
First Quarter
Apr 17
Full
Apr 24
Last Quarter

Hourly Weather History & Observations

Time (EDT) Temp. Windchill Dew Point Humidity Pressure Visibility Wind Dir Wind Speed Gust Speed Precip Events Conditions
12:20 AM 48.2 °F - 46.4 °F 93% 29.73 in 2.0 mi North 6.9 mph - N/A   Overcast
12:53 AM 50.0 °F - 46.9 °F 89% 29.71 in 2.5 mi North 5.8 mph - N/A   Overcast
1:53 AM 50.0 °F - 46.9 °F 89% 29.74 in 2.5 mi Calm Calm - N/A   Overcast
2:49 AM 48.2 °F - 46.4 °F 93% 29.73 in 3.0 mi NNE 10.4 mph - N/A   Overcast
2:53 AM 48.9 °F - 46.9 °F 93% 29.74 in 4.0 mi North 8.1 mph - N/A   Overcast
3:53 AM 48.9 °F - 46.0 °F 90% 29.77 in 6.0 mi North 5.8 mph - 0.00 in Rain Light Rain
4:20 AM 48.2 °F - 44.6 °F 87% 29.78 in 6.0 mi NNE 8.1 mph - 0.00 in Rain Light Rain
4:45 AM 46.4 °F 41.1 °F 44.6 °F 93% 29.78 in 1.5 mi North 11.5 mph - 0.00 in Rain Light Rain
4:53 AM 46.0 °F 41.4 °F 44.1 °F 93% 29.79 in 1.5 mi North 9.2 mph - 0.00 in Rain Light Rain
5:19 AM 44.6 °F 38.8 °F 42.8 °F 93% 29.80 in 2.5 mi North 11.5 mph - 0.00 in Rain Light Rain
5:29 AM 44.6 °F 38.8 °F 42.8 °F 93% 29.80 in 4.0 mi North 11.5 mph - 0.00 in Rain Light Rain
5:32 AM 44.6 °F 39.2 °F 41.0 °F 87% 29.81 in 4.0 mi North 10.4 mph - 0.00 in Rain Light Rain
5:51 AM 42.8 °F 37.0 °F 41.0 °F 93% 29.81 in 2.0 mi North 10.4 mph - 0.00 in Rain Light Rain
5:53 AM 43.0 °F 36.8 °F 41.0 °F 93% 29.81 in 2.0 mi North 11.5 mph - 0.00 in Rain Light Rain
6:06 AM 42.8 °F 36.6 °F 41.0 °F 93% 29.82 in 2.0 mi North 11.5 mph - 0.00 in Rain Light Rain
6:27 AM 42.8 °F 37.5 °F 39.2 °F 87% 29.83 in 2.0 mi North 9.2 mph - 0.01 in Rain Light Rain
6:39 AM 42.8 °F 36.6 °F 39.2 °F 87% 29.84 in 3.0 mi North 11.5 mph - 0.01 in Rain Light Rain
6:53 AM 42.1 °F 35.7 °F 39.0 °F 89% 29.85 in 3.0 mi North 11.5 mph - 0.01 in Rain Light Rain
7:53 AM 41.0 °F 35.2 °F 37.9 °F 89% 29.89 in 3.0 mi North 9.2 mph - 0.00 in Rain Light Rain
8:25 AM 41.0 °F 38.0 °F 39.2 °F 93% 29.90 in 9.0 mi North 4.6 mph - 0.00 in   Overcast
8:53 AM 42.1 °F 38.4 °F 39.0 °F 89% 29.90 in 6.0 mi NNE 5.8 mph - 0.00 in   Overcast
9:19 AM 42.8 °F 40.1 °F 39.2 °F 87% 29.90 in 9.0 mi NE 4.6 mph - N/A   Overcast
9:42 AM 42.8 °F 38.6 °F 39.2 °F 87% 29.90 in 7.0 mi NE 6.9 mph - N/A   Overcast
9:53 AM 43.0 °F 38.8 °F 39.9 °F 89% 29.90 in 4.0 mi NNE 6.9 mph - N/A   Overcast
10:09 AM 42.8 °F 38.6 °F 39.2 °F 87% 29.90 in 3.0 mi North 6.9 mph - N/A   Overcast
10:53 AM 42.1 °F 36.6 °F 39.0 °F 89% 29.91 in 6.0 mi North 9.2 mph - N/A   Overcast
11:08 AM 42.8 °F 38.0 °F 39.2 °F 87% 29.92 in 6.0 mi North 8.1 mph - N/A   Overcast
11:53 AM 43.0 °F 37.7 °F 39.0 °F 86% 29.94 in 7.0 mi North 9.2 mph - N/A   Overcast
12:53 PM 44.1 °F 39.5 °F 39.9 °F 85% 29.94 in 10.0 mi North 8.1 mph - N/A   Overcast
1:31 PM 44.6 °F 39.2 °F 39.2 °F 81% 29.94 in 10.0 mi North 10.4 mph - N/A   Overcast
1:53 PM 45.0 °F 40.1 °F 39.0 °F 80% 29.95 in 10.0 mi North 9.2 mph - N/A   Overcast
2:53 PM 46.0 °F 41.9 °F 39.0 °F 76% 29.95 in 10.0 mi North 8.1 mph - N/A   Overcast
3:53 PM 46.0 °F 43.1 °F 39.0 °F 76% 29.95 in 10.0 mi Variable 5.8 mph - N/A   Overcast
4:19 PM 46.4 °F 42.4 °F 39.2 °F 76% 29.94 in 10.0 mi NNE 8.1 mph - N/A   Overcast
4:53 PM 46.9 °F - 39.0 °F 74% 29.94 in 10.0 mi NNE 5.8 mph - N/A   Overcast
5:53 PM 48.0 °F - 39.0 °F 71% 29.95 in 10.0 mi North 8.1 mph - N/A   Overcast
6:53 PM 46.9 °F - 37.9 °F 71% 29.96 in 10.0 mi North 6.9 mph - N/A   Overcast
7:53 PM 45.0 °F 39.7 °F 36.0 °F 71% 29.98 in 10.0 mi North 10.4 mph - N/A   Overcast
8:53 PM 44.1 °F 39.0 °F 35.1 °F 71% 29.99 in 10.0 mi North 9.2 mph - N/A   Overcast
9:53 PM 43.0 °F 37.2 °F 35.1 °F 74% 29.99 in 10.0 mi NNE 10.4 mph - N/A   Overcast
10:53 PM 43.0 °F 37.2 °F 35.1 °F 74% 29.99 in 10.0 mi NNE 10.4 mph - N/A   Overcast
11:53 PM 43.0 °F 38.8 °F 35.1 °F 74% 30.00 in 10.0 mi NNW 6.9 mph - N/A   Overcast